Location: Hiram
(41.3130°N, 81.1440°W)
Time: 23:29:43
(UTC-04:00)

Iridium 62 - Visible Passes

Search period start: 27 July 2015 00:00
Search period end: 06 August 2015 00:00
Orbit: 776 x 779 km, 86.4° (Epoch: 27 July)

Date Brightness Start Highest point End Pass type
(mag) Time Alt. Az. Time Alt. Az. Time Alt. Az.
27 Jul 7.4 01:59:51 10° NNE 02:04:04 25° ENE 02:04:52 24° E visible
27 Jul 6.5 03:40:09 10° NNW 03:44:57 37° W 03:45:18 36° W visible
28 Jul 8.1 01:27:37 10° NE 01:30:08 14° ENE 01:31:12 13° E visible
28 Jul 5.7 03:06:19 10° N 03:11:32 69° W 03:11:39 68° W visible
29 Jul 6.0 02:32:48 10° N 02:37:59 65° E 02:37:59 65° E visible
29 Jul 7.7 04:15:23 10° NW 04:18:13 14° W 04:18:27 14° W visible
30 Jul 6.9 01:59:35 10° NNE 02:04:20 35° E 02:04:20 35° E visible
30 Jul 7.1 03:40:38 10° NNW 03:44:48 26° W 03:44:48 26° W visible
31 Jul 7.7 01:26:48 10° NNE 01:30:30 20° ENE 01:30:42 20° ENE visible
31 Jul 6.3 03:06:34 10° NNW 03:11:09 46° WNW 03:11:09 46° WNW visible
01 Aug 8.3 00:55:29 10° ENE 00:56:30 11° ENE 00:57:04 11° ENE visible
01 Aug 5.9 02:32:52 10° N 02:37:31 71° N 02:37:31 71° N visible
02 Aug 6.5 01:59:27 10° N 02:03:54 48° ENE 02:03:54 48° ENE visible
02 Aug 7.6 03:41:20 10° NW 03:44:21 18° WNW 03:44:21 18° WNW visible
03 Aug 7.3 01:26:23 10° NNE 01:30:17 28° ENE 01:30:17 28° ENE visible
03 Aug 7.0 03:06:57 10° NNW 03:10:45 31° WNW 03:10:45 31° WNW visible
04 Aug 8.0 00:53:54 10° NE 00:56:41 16° ENE 00:56:41 16° ENE visible
04 Aug 6.4 02:33:02 10° N 02:37:08 50° NW 02:37:08 50° NW visible
05 Aug 6.4 01:59:27 10° N 02:03:32 54° NNE 02:03:32 54° NNE visible
05 Aug 8.0 03:42:32 10° NW 03:44:00 12° WNW 03:44:00 12° WNW visible
